Location: Bacharowice
(49.9333°N, 19.5833°E)
Time: 23:46:39
(UTC+00:00)

Meteor 1-18 Rocket - Pass Details

Date: 11 May 2021
Orbit: 837 x 909 km, 81.2° (Epoch: 21 June)

Event Time Altitude Azimuth Distance (km) Brightness Sun altitude
Exits shadow 21:33:39 40° 158° (SSE) 1,234 4.5 -20.5°
Maximum altitude 21:35:31 62° 97° (E) 955 4.3 -20.6°
Drops below altitude 10° 21:41:02 10° 18° (NNE) 2,474 7.4 -20.8°
Sets 21:43:28 0° 15° (NNE) 3,408 8.4 -20.9°
